GFSSGP_850_spd_234.txt.gz
Wind_Speed
1 2 1 3 3 5 3 4 2 2 2 1 11 4 7 2 5 4 3 28 24 29 28 24 22 21 19 18 17 17 17 17 15 14 13 12 11 11 11 12 13 13 13 12 11 11 10 11 12
2 2 3 3 4 3 4 5 4 3 1 6 6 3 3 3 5 2 21 22 26 29 29 27 25 24 21 19 19 18 17 16 15 14 14 13 12 12 12 12 12 12 12 11 11 10 9 9 10
4 2 2 4 3 4 4 5 6 2 7 5 3 1 3 3 6 18 21 21 29 29 29 27 25 24 22 20 19 18 17 16 15 14 14 13 12 12 12 11 11 11 11 10 11 9 7 7 9
3 3 5 4 3 2 3 7 3 4 3 4 1 3 3 8 17 14 20 16 28 27 27 27 25 23 22 21 20 18 17 16 15 14 13 12 10 10 10 10 10 10 9 9 10 8 7 5 6
4 4 4 3 3 4 5 7 12 5 4 8 7 2 4 10 13 14 19 22 26 28 28 28 26 24 23 22 20 20 17 15 14 13 11 10 9 9 9 9 9 9 9 9 9 8 7 5 4
3 3 5 2 4 5 6 8 7 7 5 3 5 2 4 12 14 18 18 19 25 25 26 27 26 24 22 22 21 19 18 16 14 13 12 10 9 9 8 8 8 8 9 9 10 8 7 5 2
5 4 5 4 2 5 5 13 5 9 5 6 4 4 4 13 15 19 19 23 26 24 24 27 27 25 23 22 21 21 19 16 14 12 12 11 9 8 7 6 6 6 7 9 10 9 8 7 4
4 5 3 3 2 4 7 10 1 11 8 5 11 6 2 18 20 21 19 24 23 24 25 25 26 25 23 22 22 21 19 17 15 14 12 10 9 9 8 8 7 7 7 7 9 10 10 9 6
4 5 1 3 5 4 8 10 5 2 7 9 11 7 5 22 22 25 24 27 27 25 24 24 25 24 24 24 23 21 20 19 17 15 13 12 11 11 10 9 9 8 7 7 8 9 10 10 9
4 4 9 5 3 2 9 6 15 4 6 5 12 11 7 23 26 26 26 27 28 27 26 24 24 26 26 24 24 23 22 21 20 17 15 14 13 12 11 11 10 9 9 8 8 9 11 11 11
4 5 5 6 11 12 7 10 6 7 2 10 14 13 23 28 22 24 24 25 28 25 23 21 22 24 24 25 24 23 23 22 19 17 18 15 15 15 14 13 12 11 9 9 9 10 11 12 12
1 7 6 6 9 4 4 2 6 6 6 4 11 18 30 25 23 25 26 25 24 23 22 21 22 22 22 23 25 24 24 22 18 18 18 18 16 16 15 14 13 11 11 9 9 10 11 12 13
3 3 5 9 15 15 8 12 5 9 8 3 9 19 30 23 22 23 27 24 21 22 21 21 21 22 22 23 24 24 23 20 18 19 18 17 17 16 15 14 13 11 12 9 7 9 10 10 13
4 4 10 7 9 5 5 1 7 10 12 9 10 20 30 30 24 24 28 26 26 25 21 21 23 25 26 25 24 22 21 19 18 19 18 16 16 16 17 15 15 14 13 11 8 6 10 11 12
3 4 6 4 1 3 5 4 4 9 10 9 11 16 25 32 30 26 26 27 27 28 25 22 20 26 27 25 24 21 21 19 19 19 18 16 16 17 16 15 15 15 16 13 11 10 7 9 10
2 4 1 4 1 3 6 6 9 15 13 15 14 15 19 29 32 28 27 27 26 29 28 29 26 29 30 29 27 18 20 22 21 20 18 17 17 18 19 17 14 13 16 16 15 13 11 10 12
6 2 3 5 5 1 4 6 5 13 15 20 19 19 21 22 28 27 27 29 28 27 24 26 32 33 32 32 31 26 19 25 20 20 20 20 19 20 21 20 13 13 13 14 17 15 13 13 13
2 2 3 4 0 2 1 6 6 10 9 15 14 15 18 24 30 30 31 32 30 32 26 24 27 30 31 33 33 31 23 24 22 21 22 24 19 19 20 22 20 18 14 13 12 14 14 11 8
2 3 4 6 5 1 4 4 9 8 2 2 5 8 13 16 22 35 37 38 37 35 31 26 30 30 31 34 35 36 27 25 23 24 23 24 20 20 21 20 19 17 14 16 18 13 12 10 10
5 3 7 8 4 6 2 4 4 4 8 17 19 20 19 14 10 6 28 32 37 38 36 33 33 34 34 37 38 37 31 28 27 24 20 20 19 18 17 16 16 15 14 15 17 14 11 11 10
3 5 5 8 4 2 1 5 5 5 22 26 27 23 25 25 24 16 12 25 31 34 40 40 38 38 38 40 39 39 35 32 31 25 19 19 16 14 14 14 14 16 16 13 17 13 10 5 4
4 8 5 3 4 4 2 3 5 4 9 10 23 28 29 30 30 31 20 10 24 37 40 47 47 44 43 43 41 40 39 38 36 27 18 18 14 13 10 14 14 14 14 12 11 9 7 4 3
8 4 4 3 5 4 1 5 6 2 7 7 16 24 29 31 33 35 35 25 17 22 37 44 52 50 48 46 43 37 36 38 33 27 20 19 17 16 11 14 17 16 18 15 12 10 7 5 4
1 3 6 4 4 2 5 6 3 2 1 3 11 20 25 29 33 35 37 37 25 15 20 34 43 55 53 49 46 42 37 35 35 31 25 23 21 20 14 12 17 17 18 17 13 10 7 5 4
5 5 2 3 1 5 4 3 3 3 2 4 7 18 26 30 32 35 39 42 40 26 14 13 25 47 53 50 49 45 38 37 39 37 30 27 25 24 20 17 17 19 19 17 15 11 8 6 4
3 7 5 6 4 4 2 5 5 5 8 7 10 17 24 29 28 30 33 35 38 37 21 12 14 31 43 48 50 47 40 40 42 40 36 32 28 27 25 24 21 19 20 18 16 14 11 8 6
4 2 4 6 3 2 3 3 1 3 2 6 13 23 27 29 30 27 26 28 32 36 36 25 11 17 33 42 44 46 45 44 46 44 41 34 33 31 31 28 27 25 23 22 19 16 14 12 9
3 5 2 2 4 5 4 3 5 3 6 7 12 19 23 26 27 27 24 23 22 24 29 28 26 12 18 27 37 45 47 48 47 42 44 40 37 38 36 34 31 30 29 27 24 21 17 17 14
6 4 5 3 3 5 3 4 5 5 2 3 9 17 21 23 25 25 22 18 17 17 18 22 26 23 19 15 25 30 34 40 41 42 41 42 39 40 41 37 35 35 34 31 30 24 21 22 19
4 2 3 4 2 1 2 5 5 5 2 6 11 14 19 21 23 23 23 21 18 16 15 14 13 21 24 22 20 21 27 29 34 39 40 42 41 39 43 41 38 40 39 37 35 30 27 26 23

GFSSGP_850_spd_237.txt.gz
Wind_Speed
4 4 2 1 3 2 2 3 3 2 4 2 8 4 5 1 2 1 5 28 27 26 25 24 23 23 22 19 17 16 16 15 14 14 13 12 12 12 11 12 12 11 11 10 10 10 12 12 14
5 5 4 1 2 3 2 2 6 2 3 4 5 1 2 1 3 2 16 30 28 27 26 26 24 23 21 19 18 17 16 16 15 14 13 12 11 11 10 10 10 10 9 9 10 9 10 11 12
6 5 2 2 1 3 2 3 4 3 5 8 9 4 2 1 4 11 22 27 30 29 27 26 25 23 21 19 18 17 17 15 15 13 13 11 10 10 10 9 8 8 7 8 8 8 9 10 11
6 4 3 3 3 3 3 3 5 2 5 7 5 3 2 5 13 15 20 20 26 28 26 25 24 23 21 20 19 18 16 15 14 13 12 12 11 10 10 9 8 7 7 7 8 6 8 8 9
6 2 2 2 3 3 6 6 5 7 3 7 5 1 1 7 15 15 19 20 28 28 27 25 23 22 21 19 18 17 16 14 13 13 13 11 10 10 10 9 8 7 6 7 7 6 5 6 6
3 2 3 5 3 3 6 6 7 11 7 5 4 2 2 9 13 14 22 20 27 27 26 25 23 22 21 20 18 17 16 15 13 12 11 10 9 8 8 7 7 6 6 6 6 5 3 3 4
3 2 3 4 3 2 4 10 4 7 11 6 1 2 1 13 14 15 20 22 27 26 26 26 25 23 21 20 19 18 17 15 14 12 11 10 9 8 7 8 7 7 6 6 6 5 4 2 2
4 2 5 3 4 2 5 7 5 4 8 4 6 3 0 13 17 17 18 23 27 27 28 28 26 24 22 21 20 18 17 15 13 12 10 9 9 8 8 8 8 8 6 6 6 7 5 4 2
4 2 4 4 4 1 5 9 3 3 2 7 6 3 4 14 22 22 23 27 29 28 28 27 26 24 24 23 21 20 18 15 15 13 11 10 10 10 9 8 7 7 7 7 7 8 7 6 6
2 3 5 2 2 6 13 6 12 2 4 6 4 12 6 21 23 25 25 27 26 27 28 28 29 28 26 24 23 22 21 20 19 16 14 14 11 11 10 10 9 8 8 8 8 8 9 9 7
2 2 3 3 8 8 10 9 2 1 4 7 8 9 8 23 24 25 24 25 27 26 27 27 27 27 26 25 24 24 23 22 21 18 17 15 14 13 13 12 11 10 10 9 9 9 10 10 9
3 5 4 3 4 3 6 9 5 5 2 5 6 9 13 24 24 23 23 23 26 24 24 24 24 24 23 24 24 25 24 24 23 20 19 18 16 15 13 12 12 11 11 11 10 10 10 11 11
5 2 5 7 10 8 6 10 4 7 7 4 5 6 16 23 21 17 20 20 23 24 24 24 23 22 22 23 25 25 25 23 22 19 19 18 17 16 13 13 13 13 13 11 10 9 10 11 13
5 4 6 6 7 4 4 2 6 10 10 7 6 10 17 25 22 18 20 23 24 23 24 24 23 23 23 24 24 23 23 22 20 19 18 18 17 16 14 14 14 14 13 11 9 8 9 13 14
1 4 5 7 4 3 8 4 8 8 10 13 11 11 16 24 26 20 19 23 23 23 25 23 23 22 23 23 21 22 22 22 20 18 18 19 18 17 15 15 15 16 15 13 13 11 10 10 13
2 2 5 2 3 1 5 7 8 7 8 14 14 13 14 20 28 28 23 22 27 26 26 25 23 24 25 27 26 24 23 22 23 20 19 20 19 18 15 16 16 15 14 15 17 14 14 12 11
2 3 3 3 1 1 4 5 4 4 9 16 17 15 14 15 18 25 28 28 26 27 27 27 27 29 26 28 28 27 25 23 25 21 20 20 20 19 15 17 17 15 14 12 17 17 14 14 13
4 3 2 4 3 2 3 10 5 9 5 6 6 6 9 13 13 17 25 28 29 30 31 30 30 29 30 28 29 29 29 23 21 24 21 20 21 20 17 19 17 19 15 15 17 16 15 14 12
5 3 6 8 6 4 5 5 8 12 16 15 17 15 12 7 9 14 21 30 32 33 34 34 33 33 31 31 31 31 35 34 25 23 22 21 23 21 19 18 19 19 17 17 14 13 13 13 10
6 6 8 8 5 8 4 2 9 13 15 16 17 18 15 16 15 9 8 22 31 34 36 36 35 33 34 33 31 35 37 34 30 26 25 25 22 23 20 19 17 18 18 17 17 14 13 13 12
7 7 3 4 4 2 5 4 7 10 15 17 20 17 18 19 20 22 18 9 14 28 34 37 39 37 37 37 37 39 37 33 28 28 26 25 22 22 20 18 16 17 17 17 16 16 14 12 11
8 9 5 3 6 6 3 5 5 8 10 14 16 19 20 23 23 26 28 24 16 9 22 34 37 41 41 42 43 42 40 38 36 32 27 24 21 20 19 17 16 17 17 17 16 17 15 12 11
6 7 7 5 7 4 6 5 7 5 6 9 13 15 17 19 21 25 29 30 29 21 17 19 33 41 44 48 47 47 43 40 37 32 29 24 22 20 19 17 16 17 17 16 14 15 15 12 10
4 4 3 2 4 7 10 10 8 6 5 7 10 13 15 16 18 20 24 27 29 32 28 21 18 25 33 43 49 50 46 43 38 33 31 28 25 22 19 17 15 18 18 20 17 15 13 11 10
4 5 7 8 7 9 6 8 5 8 7 7 7 10 13 16 17 18 23 27 29 31 33 32 23 15 17 25 39 47 47 46 41 32 32 32 29 25 22 18 15 20 20 21 20 17 14 12 10
9 10 8 12 11 10 4 7 7 8 9 6 7 8 11 16 18 19 20 20 23 25 27 28 31 21 11 16 24 34 41 46 44 40 34 35 32 26 25 22 18 19 21 22 21 18 16 15 13
5 7 2 3 2 5 5 4 4 7 6 5 7 9 13 14 16 17 18 19 20 21 23 24 24 25 19 13 17 26 34 41 41 43 39 35 33 29 29 27 24 23 24 24 23 23 21 18 15
1 3 3 2 6 10 5 6 4 14 7 3 5 8 10 13 15 16 17 19 18 18 19 18 18 19 19 20 13 16 25 31 38 43 41 37 37 34 32 32 30 28 27 28 27 25 23 21 18
2 2 3 1 3 7 11 4 6 11 6 3 2 4 8 11 13 14 15 17 18 17 18 17 18 18 17 15 14 16 14 24 34 37 40 38 37 38 39 38 36 35 35 34 33 31 28 24 22
7 4 3 5 5 1 3 3 7 7 5 1 2 4 7 9 10 11 12 14 15 16 17 18 17 17 19 17 15 15 14 15 17 27 33 34 35 37 40 42 42 39 42 41 40 38 35 32 28

GFSSGP_850_spd_240.txt.gz
Wind_Speed
4 2 4 4 7 7 4 5 2 4 5 3 2 2 3 4 6 4 6 14 21 22 24 24 22 20 19 18 17 16 16 14 12 12 11 11 10 10 11 11 11 11 11 10 10 11 11 13 16
4 3 3 6 8 9 8 3 3 4 5 5 5 5 1 2 2 3 12 18 22 22 23 25 24 22 19 17 16 16 16 14 12 11 11 10 10 9 10 11 10 10 10 10 9 10 11 12 14
6 5 7 4 7 8 6 4 3 1 3 5 3 4 3 3 2 7 10 20 21 20 22 24 23 21 20 18 16 16 15 14 13 12 11 10 10 9 9 9 10 9 9 9 8 9 10 11 12
4 4 6 9 11 5 3 3 5 3 2 5 4 3 2 3 6 5 19 21 22 20 20 23 24 22 20 18 17 16 15 13 13 12 10 9 9 8 7 7 7 7 8 8 8 8 8 9 10
7 6 7 12 8 2 4 4 5 7 2 6 8 4 1 4 7 14 17 20 21 20 18 23 24 22 20 18 17 16 15 13 12 10 9 8 8 7 6 5 5 5 6 7 6 6 7 7 7
10 6 7 11 12 6 4 5 10 10 9 4 8 4 3 7 12 15 16 19 20 20 20 22 22 21 20 19 17 16 14 12 11 10 9 8 7 7 6 6 5 4 4 4 5 4 5 5 4
14 8 10 7 10 7 2 6 5 6 9 9 1 4 4 11 13 16 16 18 20 20 19 22 23 22 20 19 17 15 14 12 11 10 9 8 7 6 6 6 5 4 3 4 4 5 4 3 2
10 8 7 10 9 6 2 3 3 6 6 4 5 1 8 12 15 15 18 18 20 20 20 20 21 23 22 20 18 16 14 12 11 10 9 8 8 7 7 6 5 5 4 4 4 5 5 4 3
6 7 10 12 8 6 1 3 0 3 5 9 5 1 3 13 18 17 18 18 20 19 19 19 19 20 19 18 20 18 16 15 13 11 10 10 8 8 7 8 7 7 6 6 6 6 6 6 6
11 9 9 3 0 3 5 4 5 5 7 7 8 3 5 14 20 20 20 22 22 21 20 20 19 19 19 18 19 21 19 18 16 14 14 11 9 9 8 10 9 9 8 8 8 8 8 7 6
9 10 3 6 5 7 7 7 4 6 9 8 11 7 9 14 19 19 19 20 22 22 21 22 22 22 20 18 18 18 17 17 18 18 16 13 11 10 10 7 9 9 9 6 9 8 7 7 8
9 7 6 3 5 7 7 7 6 7 1 4 5 5 11 15 19 18 17 18 20 21 20 21 21 22 22 18 19 18 17 17 16 18 20 16 14 12 10 8 9 8 8 9 10 9 9 11 10
11 6 7 8 8 8 10 10 5 10 7 2 0 5 10 14 17 15 15 16 18 20 21 21 21 23 25 25 18 19 19 18 16 16 19 17 14 12 11 10 9 9 10 9 10 10 10 9 10
6 5 7 8 11 8 9 9 5 12 9 5 2 7 8 13 19 15 15 17 19 19 20 20 21 23 25 26 22 19 19 18 19 18 18 19 17 15 11 11 9 10 10 10 10 9 8 9 10
6 10 11 13 14 10 9 11 10 11 7 11 9 9 10 12 18 17 14 17 18 20 20 21 22 23 24 25 24 20 18 18 17 18 21 20 19 18 14 11 10 11 11 11 11 10 10 9 10
10 7 11 12 13 10 10 15 15 13 11 14 13 11 10 15 19 17 15 14 15 16 18 19 19 20 22 24 22 20 18 18 18 17 19 20 20 19 16 13 11 11 12 12 12 13 12 11 10
11 11 9 8 11 7 14 13 9 7 9 14 15 16 13 8 9 10 13 14 14 16 17 19 22 21 20 22 22 22 19 21 18 18 18 21 18 19 18 15 12 15 13 12 12 13 14 13 12
6 12 8 11 12 10 14 13 7 2 5 5 6 12 8 4 1 3 9 14 15 16 18 20 21 24 24 21 22 19 20 23 21 20 21 22 20 20 20 16 16 16 14 14 13 13 14 15 14
9 7 9 8 8 9 12 12 8 3 6 7 6 7 6 4 4 5 5 7 12 18 22 21 24 24 24 25 22 22 24 23 22 20 21 23 22 21 21 16 18 18 15 16 15 13 15 14 12
9 11 12 10 8 11 12 10 6 6 8 8 8 11 10 9 10 13 11 6 7 15 20 21 25 25 27 26 25 22 20 22 21 20 26 24 25 23 20 18 16 17 16 17 15 15 13 11 13
13 12 9 11 10 14 10 12 11 8 10 10 10 11 12 12 13 15 16 15 10 8 16 22 26 27 30 29 25 28 25 23 22 23 23 27 25 24 21 19 17 17 17 16 15 16 15 12 11
14 12 11 8 12 14 17 12 20 14 9 8 9 8 10 11 13 13 15 18 18 15 9 12 24 29 28 31 29 32 34 28 27 24 22 21 23 24 21 20 20 19 16 17 16 16 15 14 10
14 5 11 11 12 15 14 12 13 16 14 9 9 9 9 10 11 12 14 15 17 18 17 15 8 16 27 26 32 29 33 29 24 23 23 24 26 22 20 21 21 20 20 18 17 16 19 14 13
6 8 11 11 12 14 19 15 14 18 16 10 9 8 9 9 10 12 13 13 16 18 20 19 18 13 10 20 24 31 32 30 26 25 24 21 21 24 23 22 21 20 19 18 16 16 15 16 14
12 14 12 14 14 15 18 18 8 10 11 11 8 8 9 9 11 13 15 16 17 19 21 20 22 19 14 9 15 22 27 28 27 25 24 22 22 21 24 24 22 19 20 19 18 17 16 19 14
19 19 15 20 15 16 8 14 7 11 11 9 8 7 7 8 10 12 15 16 17 18 18 19 20 20 18 12 10 14 20 24 26 27 27 23 25 24 25 25 23 19 20 23 21 20 19 17 15
19 13 14 18 20 10 10 3 6 11 11 9 7 6 6 8 10 12 13 15 16 16 16 17 16 16 17 17 12 9 11 16 22 24 23 27 24 24 25 27 26 23 20 23 24 22 21 18 17
10 5 9 11 20 19 14 16 9 19 15 9 7 4 5 6 9 11 12 14 14 14 14 15 15 15 14 14 14 12 7 10 14 18 21 21 20 25 23 28 30 28 25 25 27 23 22 21 19
12 8 6 8 7 8 13 10 9 16 14 10 5 2 4 6 8 10 11 12 13 13 14 14 14 14 14 14 13 12 11 9 10 11 15 21 22 22 26 26 29 31 31 29 31 29 26 26 23
17 19 13 7 9 8 9 7 6 11 10 6 3 0 4 6 7 8 9 11 12 14 14 14 15 15 15 14 14 13 12 12 10 6 14 14 16 21 24 26 26 26 28 31 32 33 31 29 28

GFSSGP_850_spd_246.txt.gz
Wind_Speed
9 9 13 14 5 8 16 17 4 10 17 14 17 14 12 18 12 5 16 16 16 23 24 21 21 21 18 16 14 13 11 11 11 10 10 10 11 11 11 12 12 12 13 13 14 15 17 20 22
7 6 11 11 8 12 10 23 17 21 10 14 13 8 13 13 15 15 17 21 17 23 24 23 22 22 19 16 14 13 11 10 9 9 9 9 10 10 10 10 11 10 11 12 12 13 15 17 20
5 2 10 5 12 13 6 24 12 42 9 4 10 13 6 5 8 11 18 24 19 19 24 22 22 21 18 16 14 12 10 9 9 8 8 8 9 10 9 9 9 9 9 9 10 11 12 13 16
4 7 11 9 16 14 15 6 10 2 9 5 8 11 9 6 5 11 21 23 19 21 20 22 21 20 18 16 14 12 10 9 8 7 7 8 8 8 8 7 7 7 7 7 7 7 8 10 12
9 11 11 16 19 18 17 4 4 8 11 17 7 9 9 6 11 15 23 21 21 21 19 23 20 20 18 16 15 13 11 9 8 7 7 7 7 7 7 6 6 5 5 5 5 4 5 6 8
11 11 12 13 18 14 4 4 6 8 10 14 9 13 10 14 18 20 21 18 20 22 16 22 20 18 17 16 14 13 11 9 9 7 6 6 6 5 5 5 5 4 3 4 3 2 2 3 5
15 11 16 18 20 21 4 8 6 11 9 10 9 15 14 15 20 20 19 19 21 16 14 23 20 19 17 16 15 13 11 11 10 8 7 6 5 4 3 3 3 2 2 2 3 3 3 1 1
17 13 19 18 17 18 10 6 7 8 11 2 4 12 3 11 16 19 17 18 19 15 12 22 22 20 18 17 16 14 13 11 10 9 8 7 5 4 3 3 2 2 2 3 3 4 5 5 3
19 11 14 19 20 15 9 4 10 4 12 4 7 19 17 21 18 17 19 18 18 17 13 15 18 20 18 18 16 15 14 13 12 11 9 7 6 5 5 4 3 3 4 4 5 6 7 8 6
17 12 18 22 18 18 4 6 11 3 9 16 10 29 28 24 20 19 17 18 18 19 17 18 18 19 17 15 17 18 16 15 14 12 10 8 4 3 5 4 4 6 7 7 7 8 8 9 7
18 16 21 23 17 15 17 7 8 11 12 17 18 25 23 22 19 20 20 22 20 19 18 20 20 16 19 18 15 17 17 16 15 13 12 10 8 14 11 9 6 7 10 9 9 10 8 7 3
17 22 23 26 16 14 13 15 16 12 17 9 15 22 22 16 20 20 17 23 33 22 19 21 21 21 22 21 16 12 12 11 14 15 14 12 17 16 10 12 10 7 6 8 8 11 15 8 10
15 19 21 20 16 19 15 18 18 14 22 13 15 17 27 13 15 13 11 15 23 22 21 21 22 23 24 18 14 9 14 14 9 10 14 14 20 15 14 11 12 11 7 7 4 8 12 10 12
17 14 19 25 16 20 18 20 18 19 25 16 6 6 10 13 12 12 9 14 18 20 21 18 22 22 24 25 16 14 13 18 13 15 15 14 16 13 14 13 15 15 12 10 11 11 14 14 12
18 17 15 19 18 18 19 20 19 23 17 23 7 7 13 14 13 15 12 6 13 20 21 22 18 18 18 30 24 17 17 19 15 19 18 19 18 16 19 15 14 13 12 13 14 15 12 16 13
12 15 17 17 22 22 17 20 18 20 16 25 13 12 13 13 13 16 17 18 11 17 18 20 20 19 20 21 24 25 21 17 18 19 21 24 24 22 21 20 18 16 14 14 12 15 15 17 18
14 14 19 20 21 19 19 20 18 19 22 22 14 15 14 12 13 10 13 19 18 15 18 20 21 19 20 17 20 20 21 20 23 23 21 24 24 22 25 20 20 17 18 15 15 14 16 18 16
16 17 15 17 16 11 14 17 16 24 24 24 22 14 16 14 14 8 9 13 18 14 15 18 22 22 19 19 19 20 18 21 18 20 22 24 26 24 22 24 16 19 22 17 16 17 17 20 17
17 20 18 20 16 12 14 15 19 18 25 13 9 13 18 4 14 9 3 3 12 17 12 12 15 20 22 19 21 19 22 20 22 22 22 25 27 28 22 24 22 23 24 17 16 19 20 22 20
19 17 17 18 21 19 17 14 18 18 13 12 15 10 9 10 9 7 8 5 3 9 15 17 18 18 20 26 23 19 14 20 20 21 20 25 29 29 26 24 21 24 22 18 21 23 21 18 16
18 16 17 21 22 20 18 20 17 23 13 12 4 9 10 7 12 7 8 8 7 7 5 10 17 21 18 21 21 22 24 20 21 25 23 26 30 31 27 27 22 24 25 21 19 21 22 23 22
18 20 18 21 19 15 18 15 18 20 15 13 16 12 13 15 15 13 12 11 12 11 9 5 3 16 22 21 21 20 21 25 26 24 24 28 30 31 31 30 28 27 26 24 21 21 20 18 19
21 16 19 20 19 17 24 14 14 17 21 19 18 21 22 18 19 17 15 13 13 12 12 9 10 10 4 17 24 21 21 23 18 21 23 26 32 34 34 31 31 26 30 26 20 21 21 17 16
17 20 18 18 17 17 20 18 18 18 20 22 23 25 21 19 18 19 18 15 14 13 10 12 12 12 10 8 4 16 18 19 22 23 22 25 32 37 41 38 33 30 28 26 26 25 24 23 20
17 18 12 16 15 16 19 20 19 17 17 26 21 23 21 22 20 17 17 14 14 13 12 11 12 12 12 9 3 3 3 12 17 22 27 28 24 37 48 51 44 33 30 25 25 27 25 26 22
20 14 5 9 16 16 18 19 3 15 19 37 37 27 19 18 17 15 10 11 12 12 11 11 11 12 12 11 10 5 3 6 10 16 21 30 35 35 33 16 4 15 26 26 27 25 26 25 23
10 13 14 6 19 16 19 18 1 6 2 15 19 27 20 17 11 12 10 9 9 11 11 10 11 11 12 13 12 11 10 8 12 15 23 25 30 40 31 18 21 28 35 34 29 28 31 28 27
10 8 8 3 3 6 13 10 7 20 9 18 13 8 14 14 13 7 11 6 8 9 10 9 9 10 9 9 9 13 16 15 16 15 17 23 28 34 35 29 31 40 53 42 36 33 32 29 28
10 6 3 3 5 4 7 4 13 21 16 15 24 4 6 6 6 10 6 6 6 7 8 8 8 8 8 9 9 8 9 10 14 18 19 20 22 26 25 26 31 25 52 46 35 37 35 35 34
2 4 1 4 2 3 2 2 4 11 18 19 16 14 22 11 5 9 5 2 5 6 7 7 8 8 8 10 10 11 12 11 16 19 23 24 24 21 22 27 29 26 23 32 41 45 37 36 38